FW0782 Weather Reports


time (UTC)temp
C
wind
direction
speed
KPH
gust
KPH
rain 1hr
cm
rain 24hr
cm
rain mn
cm
humidity
%
barometer
mb
20260510080219 14 59 20.9 33.8 0.00 0.00 0.00 61 1015.9
20260510080019 14 63 19.3 29.0 0.00 0.00 0.00 60 1015.7
20260510075718 14 57 19.3 33.8 0.00 0.00 0.00 60 1015.9
20260510075219 14 62 19.3 32.2 0.00 0.00 0.00 60 1016.0
20260510075019 14 57 17.7 30.6 0.00 0.00 0.00 60 1015.7
20260510073019 14 54 16.1 29.0 0.00 0.00 0.00 62 1015.9
20260510064718 12 60 19.3 32.2 0.00 0.00 0.00 71 1016.1
20260509222020 12 57 8.0 11.3 0.00 0.00 0.00 80 1016.8
20260509221719 12 57 8.0 11.3 0.00 0.00 0.00 80 1017.1
20260509221019 12 56 6.4 6.4 0.00 0.00 0.00 80 1016.7
20260509213718 12 59 8.0 11.3 0.00 0.00 0.00 77 1017.0
20260509213219 12 51 8.0 12.9 0.00 0.00 0.00 77 1017.0
20260509213019 12 53 8.0 12.9 0.00 0.00 0.00 77 1016.7
20260509212718 12 64 8.0 12.9 0.00 0.00 0.00 77 1017.0
20260509212220 12 58 9.7 12.9 0.00 0.00 0.00 77 1017.0
20260509212019 12 62 9.7 9.7 0.00 0.00 0.00 76 1016.7
20260509205019 12 57 9.7 14.5 0.00 0.00 0.00 74 1016.6
20260509204218 12 60 11.3 14.5 0.00 0.00 0.00 74 1016.9
20260509204019 12 57 11.3 14.5 0.00 0.00 0.00 73 1016.6
20260509192218 13 52 8.0 11.3 0.00 0.00 0.00 65 1016.8
20260509192019 13 55 8.0 11.3 0.00 0.00 0.00 65 1016.5
20260509191719 13 53 4.8 11.3 0.00 0.00 0.00 65 1016.8
20260509191218 14 53 8.0 11.3 0.00 0.00 0.00 64 1016.7
20260509191019 14 52 6.4 11.3 0.00 0.00 0.00 64 1016.3
20260509190718 14 55 6.4 9.7 0.00 0.00 0.00 64 1016.6
20260509190218 14 55 4.8 11.3 0.00 0.00 0.00 64 1016.6
20260509190019 14 57 6.4 9.7 0.00 0.00 0.00 64 1016.3
20260509185718 14 57 6.4 11.3 0.00 0.00 0.00 64 1016.6
20260509185218 15 58 6.4 11.3 0.00 0.00 0.00 64 1016.6
20260509185018 15 54 6.4 11.3 0.00 0.00 0.00 63 1016.3
20260509184219 15 44 8.0 16.1 0.00 0.00 0.00 63 1016.7
20260509184019 15 41 6.4 16.1 0.00 0.00 0.00 62 1016.4
20260509183718 15 44 4.8 11.3 0.00 0.00 0.00 63 1016.7
20260509183218 15 40 4.8 11.3 0.00 0.00 0.00 62 1016.7
20260509183019 15 34 4.8 11.3 0.00 0.00 0.00 62 1016.3
20260509182719 15 24 4.8 11.3 0.00 0.00 0.00 61 1016.6
20260509182218 16 9 8.0 12.9 0.00 0.00 0.00 61 1016.6
20260509144219 19 57 11.3 20.9 0.00 0.00 0.00 57 1016.6
20260509144019 19 358 11.3 20.9 0.00 0.00 0.00 62 1016.3
20260509143719 19 331 6.4 19.3 0.00 0.00 0.00 57 1016.6
20260509143219 18 49 4.8 12.9 0.00 0.00 0.00 59 1016.7
20260509143019 18 59 3.2 8.0 0.00 0.00 0.00 58 1016.3
20260509142219 18 67 8.0 14.5 0.00 0.00 0.00 56 1016.8
20260509141719 19 61 9.7 19.3 0.00 0.00 0.00 57 1016.8
20260509141219 18 68 9.7 20.9 0.00 0.00 0.00 57 1016.8
20260509141019 19 64 8.0 12.9 0.00 0.00 0.00 58 1016.5
20260509111219 18 62 9.7 19.3 0.00 0.00 0.00 58 1018.3
20260509110718 17 106 11.3 19.3 0.00 0.00 0.00 57 1018.4
20260509110218 18 66 9.7 12.9 0.00 0.00 0.00 59 1018.4
20260509110020 18 82 9.7 12.9 0.00 0.00 0.00 59 1018.1
20260509105718 17 83 9.7 14.5 0.00 0.00 0.00 59 1018.5
20260509105019 17 109 12.9 19.3 0.00 0.00 0.00 62 1018.2